Wetbulb
75.21 75.51 75.78 78.03 76.04 77.05 76.13 76.44 75.29 74.79 74.65 74.76 74.63 74.68 74.36 73.94 74.49 74.97 74.99 74.86 74.30 74.44 74.11 74.93 75.19 75.63 76.65 77.09 76.81 76.63 76.76 76.70 76.43 76.34 76.31 76.30 76.02 75.55 75.67 75.45 75.17 75.23 75.39
75.51 75.29 77.06 75.26 75.75 75.55 77.05 73.51 76.80 76.01 75.62 74.36 73.83 74.30 74.89 75.32 75.88 75.40 75.44 75.76 74.90 74.85 74.88 75.03 75.14 75.36 75.94 76.87 77.08 76.47 76.32 76.44 76.60 77.11 77.07 76.42 76.56 76.14 75.93 75.91 75.61 75.43 74.91
77.03 77.56 79.98 75.96 77.83 76.87 74.60 73.90 75.07 76.25 75.73 75.21 74.25 73.78 74.33 75.05 75.30 76.20 76.14 75.63 75.51 75.23 75.62 76.21 76.35 76.60 76.48 76.46 77.69 77.58 77.64 77.63 77.58 77.59 77.32 76.92 76.74 76.11 76.41 76.54 75.88 75.72 75.90
78.35 77.85 76.99 78.57 77.91 77.08 78.70 77.04 74.18 76.70 76.57 76.17 74.30 74.06 74.41 75.33 75.66 75.79 76.37 76.31 75.99 76.07 75.96 76.51 77.09 77.01 76.22 76.29 77.91 78.08 77.88 77.48 77.42 77.48 77.48 77.36 77.36 77.16 76.60 76.73 76.66 76.18 75.59
78.10 77.89 76.74 77.55 78.38 78.19 76.51 76.84 76.24 76.06 76.31 75.79 75.06 74.25 74.51 74.96 75.22 74.95 75.10 76.15 76.30 76.22 75.90 76.93 76.85 77.23 77.15 77.15 77.33 77.93 78.17 77.84 77.25 77.23 77.13 77.23 76.81 77.06 76.76 76.63 76.43 76.46 76.11
78.33 78.52 77.40 77.91 77.77 78.89 75.82 75.75 75.49 75.95 75.25 76.13 74.34 73.72 74.43 75.07 75.19 74.50 74.52 75.24 75.76 76.25 76.09 76.60 77.17 76.61 77.48 77.45 77.69 77.77 77.95 78.06 77.42 77.19 76.90 76.96 76.78 76.56 76.63 76.33 76.18 76.31 76.20
78.40 78.62 77.65 77.91 77.12 77.24 76.78 76.70 76.19 75.45 74.52 75.44 74.13 73.37 73.97 74.81 74.81 74.88 74.87 74.86 75.27 75.50 75.99 76.43 76.12 75.78 76.60 77.54 77.43 77.41 77.84 78.27 78.06 77.83 77.51 77.36 76.71 76.13 76.05 76.03 75.63 75.95 76.08
77.61 77.80 77.91 77.44 77.49 75.81 77.21 77.15 76.62 75.74 75.18 75.02 74.42 74.10 72.08 72.71 73.45 74.23 74.42 74.63 74.93 75.12 75.17 76.10 76.41 76.46 76.72 76.73 76.85 76.68 77.28 77.85 78.16 77.72 77.86 77.44 76.81 76.16 75.73 75.82 75.49 75.44 75.57
77.87 78.61 78.07 78.17 77.69 77.01 77.90 76.85 76.62 76.26 73.11 74.77 75.37 72.52 69.71 68.72 73.21 74.19 74.70 75.02 75.15 74.58 74.75 75.39 75.76 77.01 77.42 77.09 77.34 77.05 76.75 76.11 77.15 77.37 77.14 76.63 76.12 75.70 75.30 75.70 75.64 75.38 75.35
77.18 77.46 77.80 77.86 78.73 76.57 77.25 76.55 75.59 77.79 76.39 73.55 75.16 73.82 73.51 75.24 72.00 69.79 71.40 72.58 75.25 75.60 75.65 75.01 75.16 76.34 77.47 77.12 77.53 77.05 76.93 76.28 76.78 77.08 77.29 77.04 76.33 76.02 75.57 75.50 75.85 75.70 75.47
77.49 77.33 77.62 78.27 77.44 78.54 78.02 77.21 76.55 77.07 75.62 74.78 76.15 73.46 74.51 73.69 74.25 73.71 72.57 69.77 73.56 72.25 74.48 75.59 75.63 75.46 76.51 77.27 77.11 76.72 75.64 75.30 75.87 76.45 76.51 76.78 76.96 76.74 76.57 76.25 76.31 76.50 76.44
75.38 77.54 78.03 78.49 79.01 77.91 76.38 78.77 78.08 76.96 76.23 75.74 76.21 76.62 73.44 71.88 73.21 72.03 73.50 73.33 70.27 70.32 72.31 73.90 74.40 75.70 76.05 75.98 76.64 75.85 75.26 75.12 74.66 74.66 74.61 75.30 76.13 76.94 77.26 77.18 77.04 76.90 76.60
74.57 75.94 78.32 77.24 77.08 77.70 78.77 77.79 77.74 76.29 76.47 75.55 76.23 74.43 74.40 78.58 76.65 73.29 76.71 75.02 71.36 73.05 72.99 73.03 75.15 75.63 75.66 75.97 76.24 74.82 75.07 73.27 73.26 72.93 73.01 73.58 74.37 75.30 76.25 76.56 76.70 77.15 76.85
75.55 76.79 77.40 77.14 77.15 77.62 77.05 76.72 78.73 75.03 76.38 76.00 76.62 76.20 74.51 74.32 75.00 76.95 74.71 73.58 69.04 72.99 73.61 74.79 76.25 73.40 75.69 75.07 76.11 73.04 73.86 71.81 72.23 71.77 71.35 71.58 72.17 72.99 73.99 74.93 75.34 75.38 75.49
75.74 76.28 77.12 77.96 77.55 77.21 76.93 78.53 76.26 75.58 75.85 76.20 75.82 75.88 75.30 77.55 76.39 79.69 75.71 75.97 71.86 73.12 71.38 74.02 72.99 76.87 76.42 76.05 76.42 76.26 76.35 73.58 71.91 71.29 70.53 70.10 70.64 71.24 71.88 72.58 72.93 73.31 73.73
76.63 76.88 77.08 77.44 77.51 77.58 77.63 77.88 75.82 76.40 75.95 75.35 74.89 75.90 75.85 75.16 75.19 76.64 78.84 78.49 74.21 71.86 69.38 74.40 74.03 76.62 77.54 76.57 76.55 76.93 76.10 72.81 71.47 70.47 69.68 69.22 69.42 70.04 70.46 70.65 70.74 70.99 71.41
77.05 77.63 77.98 77.63 77.11 76.97 77.22 77.10 76.65 76.46 75.34 75.83 76.05 75.73 75.51 76.50 74.74 74.88 79.35 75.38 75.46 74.84 71.06 72.34 75.89 76.65 77.18 77.27 77.05 76.86 76.37 76.39 75.09 70.24 69.74 69.17 68.84 69.10 69.68 69.77 69.50 69.61 70.10
76.74 77.26 77.76 77.74 77.18 76.99 77.55 77.20 76.20 75.83 75.53 75.04 75.57 75.92 75.59 75.15 76.06 76.66 75.10 76.01 77.34 75.63 73.17 72.61 76.44 76.57 76.72 77.28 77.59 77.23 76.49 75.64 75.69 71.40 69.40 69.11 68.60 68.13 67.71 67.57 67.37 67.62 67.86
77.37 77.74 78.02 77.77 77.53 76.90 76.45 76.64 76.57 76.24 75.67 76.00 76.19 75.75 75.83 75.52 75.26 75.63 76.35 76.01 74.96 75.32 74.90 73.26 73.16 74.67 75.41 76.42 76.16 77.23 76.90 76.71 76.77 72.99 68.66 68.39 68.13 67.71 67.10 66.22 65.66 64.84 64.79
77.92 77.91 77.74 77.37 76.97 76.60 76.98 76.10 75.89 75.89 75.52 75.83 76.39 76.15 75.97 75.82 75.84 76.43 76.58 77.81 76.47 77.77 75.24 74.10 72.89 73.23 73.82 75.71 75.88 73.62 73.83 76.18 74.94 75.36 74.50 71.84 72.13 68.98 67.66 66.11 65.59 64.96 62.80
77.17 76.01 77.11 76.82 75.90 76.12 74.69 75.56 75.29 74.99 75.41 75.15 75.51 75.92 76.30 75.51 72.92 73.82 75.87 76.20 75.94 77.34 74.83 73.20 71.47 72.38 71.68 71.71 72.57 72.05 71.56 71.67 73.48 73.35 72.64 72.99 73.70 75.40 75.22 67.74 71.08 67.48 64.23
76.17 76.48 75.07 75.20 74.68 74.02 69.64 68.17 72.29 74.50 74.93 74.93 74.81 76.43 77.06 73.56 73.25 69.99 69.69 70.18 74.00 76.31 74.57 72.24 71.96 72.03 74.14 73.05 72.00 70.62 69.16 67.54 65.64 71.02 71.57 69.81 70.15 69.77 71.40 72.39 71.11 68.01 64.60
76.20 75.41 74.57 74.40 73.93 74.52 66.36 67.01 68.45 73.97 74.52 74.57 74.95 75.36 75.26 74.60 74.25 76.29 70.03 68.49 68.96 68.82 70.00 76.01 75.35 74.41 74.01 73.34 72.80 71.50 70.37 69.00 67.49 68.48 69.62 66.61 69.29 68.85 70.64 70.59 67.46 66.36 64.32
75.05 75.50 75.09 74.71 73.95 73.55 65.05 64.90 67.41 72.47 73.72 74.94 75.29 75.54 75.25 75.62 76.87 76.39 75.56 75.77 75.48 76.23 75.72 75.00 75.61 75.85 75.32 73.38 72.21 71.08 70.23 69.72 69.53 69.81 71.96 67.09 70.19 69.86 71.60 72.03 66.96 65.92 63.87
73.18 72.67 72.98 73.11 73.41 73.38 62.84 60.80 64.28 70.98 71.35 73.29 74.46 74.92 73.63 73.58 70.27 66.91 74.46 74.16 75.02 75.90 67.26 65.24 65.19 63.46 63.37 63.10 64.67 67.92 66.43 66.88 66.49 67.98 70.87 68.13 69.36 69.21 70.66 71.91 72.50 65.43 63.02
71.59 71.21 71.36 71.92 68.16 70.86 62.46 60.70 62.79 67.37 70.44 71.70 74.95 74.09 66.56 71.03 66.22 63.94 73.52 74.87 73.88 76.04 76.25 72.07 69.71 65.73 64.24 66.99 63.18 68.09 68.61 66.99 66.93 66.29 70.79 68.59 68.65 68.29 68.13 73.28 72.63 74.40 73.09
MSLP
1017.35 1018.47 1018.49 1018.46 1018.00 1018.18 1019.00 1019.04 1018.67 1018.42 1018.43 1018.53 1018.55 1018.91 1018.60 1018.67 1019.04 1018.96 1018.73 1020.05 1020.70 1020.94 1021.10 1021.31 1021.53 1021.69 1021.83 1021.99 1022.22 1022.41 1022.56 1022.65 1022.77 1022.90 1022.96 1023.03 1023.13 1023.19 1023.25 1023.29 1023.27 1023.33 1023.38
1017.11 1017.46 1018.27 1018.18 1017.95 1018.08 1018.76 1019.12 1018.94 1018.58 1018.35 1018.15 1018.38 1018.71 1018.69 1018.45 1018.87 1019.21 1018.76 1019.26 1020.17 1020.51 1020.76 1020.89 1021.15 1021.36 1021.53 1021.63 1021.86 1022.13 1022.27 1022.38 1022.43 1022.50 1022.62 1022.74 1022.82 1022.93 1022.95 1023.07 1023.09 1023.08 1023.12
1017.11 1017.27 1017.60 1017.85 1017.81 1018.02 1018.60 1018.80 1018.60 1018.22 1018.36 1017.64 1017.99 1017.98 1018.19 1018.35 1018.19 1018.53 1018.66 1018.48 1019.05 1019.96 1020.28 1020.50 1020.65 1020.84 1021.06 1021.25 1021.41 1021.67 1021.84 1021.94 1022.03 1022.11 1022.27 1022.41 1022.52 1022.59 1022.61 1022.66 1022.79 1022.84 1022.79
1017.02 1016.99 1016.79 1016.84 1017.39 1017.54 1017.79 1017.82 1017.95 1018.16 1018.22 1018.02 1017.42 1017.53 1017.36 1017.36 1017.55 1017.87 1018.07 1018.04 1018.16 1017.75 1019.29 1019.86 1020.12 1020.37 1020.55 1020.73 1020.89 1021.11 1021.27 1021.37 1021.57 1021.70 1021.85 1021.97 1022.05 1022.10 1022.20 1022.16 1022.29 1022.46 1022.46
1016.52 1016.73 1016.58 1016.64 1016.82 1016.87 1016.89 1017.10 1017.37 1017.61 1017.91 1017.92 1017.64 1017.16 1017.25 1017.04 1016.79 1016.72 1016.99 1017.49 1017.30 1017.92 1017.55 1018.43 1019.27 1019.72 1019.97 1020.10 1020.27 1020.46 1020.68 1020.85 1021.02 1021.19 1021.27 1021.37 1021.55 1021.59 1021.64 1021.64 1021.77 1021.92 1022.03
1016.36 1016.48 1016.24 1016.45 1016.59 1016.73 1016.64 1016.74 1016.97 1016.99 1017.20 1017.77 1017.32 1016.72 1016.60 1016.60 1016.39 1016.35 1016.39 1016.63 1016.50 1016.91 1017.32 1017.56 1018.27 1018.69 1019.18 1019.35 1019.51 1019.75 1019.95 1020.19 1020.40 1020.59 1020.68 1020.77 1020.99 1021.06 1021.10 1021.16 1021.28 1021.39 1021.54
1016.08 1016.16 1016.27 1016.46 1016.36 1016.37 1016.71 1016.72 1016.84 1017.05 1017.00 1017.21 1017.07 1016.64 1016.34 1016.44 1016.29 1016.13 1015.85 1015.95 1015.89 1016.26 1016.63 1017.12 1017.43 1017.22 1017.83 1018.61 1018.89 1019.13 1019.33 1019.60 1019.82 1020.03 1020.08 1020.19 1020.41 1020.45 1020.60 1020.71 1020.82 1020.92 1021.05
1015.85 1015.84 1016.11 1015.92 1016.23 1015.93 1016.64 1016.72 1016.74 1016.88 1016.93 1016.72 1016.99 1017.10 1016.49 1015.96 1015.65 1015.63 1015.69 1015.65 1015.70 1015.81 1015.90 1016.36 1016.76 1017.13 1017.03 1016.99 1017.48 1018.36 1018.70 1018.97 1019.15 1019.27 1019.47 1019.57 1019.67 1019.78 1019.92 1020.14 1020.34 1020.52 1020.61
1015.44 1015.50 1015.51 1015.90 1015.94 1016.13 1016.10 1016.67 1016.66 1016.69 1016.42 1016.52 1016.84 1017.25 1016.86 1016.32 1015.73 1015.01 1015.33 1015.54 1015.68 1015.61 1015.40 1015.46 1015.86 1016.44 1016.85 1016.59 1016.77 1017.36 1017.92 1018.28 1018.52 1018.70 1018.89 1018.91 1019.00 1019.14 1019.35 1019.57 1019.79 1020.07 1020.22
1014.89 1015.11 1015.52 1015.75 1016.11 1015.70 1015.75 1016.31 1016.21 1016.42 1016.53 1016.21 1016.15 1016.79 1016.82 1016.26 1016.04 1015.67 1016.26 1016.05 1015.64 1015.65 1015.37 1015.17 1015.15 1015.64 1016.19 1016.23 1016.19 1016.28 1016.83 1017.42 1017.84 1018.09 1018.22 1018.33 1018.46 1018.59 1018.76 1018.99 1019.19 1019.50 1019.76
1014.47 1014.93 1014.93 1015.14 1015.59 1015.73 1015.46 1016.01 1015.90 1016.04 1015.55 1015.89 1015.67 1015.78 1015.88 1015.57 1015.67 1016.13 1015.73 1016.12 1015.59 1015.76 1015.20 1014.88 1014.82 1014.91 1015.14 1015.49 1015.44 1015.63 1016.32 1016.93 1017.29 1017.51 1017.63 1017.68 1017.74 1017.85 1018.08 1018.35 1018.47 1018.70 1019.07
1014.20 1013.94 1014.35 1014.58 1015.08 1015.32 1015.28 1015.57 1015.83 1015.71 1015.60 1015.43 1015.28 1015.79 1015.61 1015.22 1015.47 1015.72 1015.59 1015.36 1015.23 1015.52 1015.32 1015.07 1014.81 1014.29 1014.58 1014.76 1015.25 1015.33 1015.98 1016.27 1016.52 1016.79 1017.03 1017.16 1017.27 1017.36 1017.47 1017.68 1017.91 1018.12 1018.37
1013.72 1013.51 1013.82 1014.31 1014.58 1014.63 1014.81 1015.09 1015.36 1015.33 1015.32 1015.22 1015.27 1015.07 1014.56 1014.92 1015.52 1015.26 1015.15 1014.95 1014.38 1014.45 1014.22 1014.44 1014.04 1014.10 1014.56 1014.83 1014.76 1015.09 1015.39 1015.65 1016.02 1016.26 1016.51 1016.61 1016.77 1016.95 1017.05 1017.12 1017.32 1017.36 1017.58
1013.53 1013.71 1013.59 1013.75 1014.17 1014.14 1014.17 1014.59 1015.03 1015.03 1014.76 1014.90 1015.00 1014.94 1014.55 1014.68 1014.84 1014.91 1014.92 1014.69 1014.47 1014.06 1012.98 1013.51 1014.03 1014.42 1013.56 1014.59 1014.52 1015.17 1015.08 1015.14 1015.40 1015.61 1015.82 1016.09 1016.35 1016.51 1016.64 1016.79 1016.88 1016.87 1016.80
1013.19 1013.27 1013.37 1013.56 1013.47 1013.53 1013.75 1014.13 1014.60 1014.56 1014.51 1014.62 1014.61 1014.58 1014.49 1014.42 1014.19 1014.52 1014.35 1014.52 1013.68 1013.51 1013.25 1013.15 1012.84 1013.27 1013.24 1013.69 1013.81 1013.98 1013.87 1013.98 1014.67 1015.06 1015.40 1015.65 1015.76 1015.83 1015.89 1016.00 1016.12 1016.32 1016.51
1012.80 1012.79 1012.83 1013.06 1013.04 1013.10 1013.31 1013.73 1013.76 1013.91 1014.07 1013.90 1013.84 1014.08 1014.19 1013.96 1014.03 1013.77 1013.82 1014.19 1013.90 1013.53 1012.77 1012.28 1012.27 1012.88 1013.20 1013.29 1013.32 1013.71 1013.65 1014.01 1014.31 1014.56 1014.76 1014.95 1015.10 1015.21 1015.24 1015.33 1015.47 1015.58 1015.68
1012.53 1012.60 1012.45 1012.65 1012.66 1012.72 1012.86 1013.17 1013.15 1013.19 1013.47 1013.43 1013.43 1013.50 1013.54 1013.63 1013.65 1013.03 1013.53 1013.26 1013.29 1013.47 1012.83 1012.11 1012.32 1012.93 1013.39 1013.34 1013.03 1013.16 1013.21 1013.11 1012.71 1013.56 1013.92 1014.18 1014.38 1014.49 1014.55 1014.67 1014.76 1014.81 1014.98
1012.10 1012.11 1012.11 1012.25 1012.32 1012.24 1012.35 1012.82 1012.63 1012.52 1012.71 1012.83 1012.89 1012.96 1013.01 1012.88 1013.05 1013.15 1012.90 1012.82 1012.54 1012.67 1012.87 1012.74 1012.54 1013.01 1013.28 1013.00 1013.06 1012.95 1012.58 1012.10 1012.11 1012.61 1013.20 1013.61 1013.82 1013.92 1013.91 1014.03 1014.23 1014.29 1014.37
1011.24 1011.19 1011.47 1011.61 1011.75 1011.88 1011.89 1012.10 1012.17 1012.23 1012.13 1012.10 1012.34 1012.53 1012.40 1012.53 1012.55 1012.43 1012.51 1012.53 1012.35 1012.77 1013.00 1012.89 1012.31 1012.18 1012.32 1012.40 1012.75 1012.71 1012.50 1012.12 1011.91 1012.24 1012.63 1012.83 1012.98 1013.10 1013.21 1013.37 1013.57 1013.78 1013.93
1010.65 1010.33 1010.54 1010.94 1011.33 1011.49 1011.68 1011.84 1011.91 1012.09 1011.94 1011.78 1011.83 1011.91 1011.73 1011.81 1012.03 1012.26 1012.72 1012.69 1012.78 1012.69 1012.68 1012.60 1012.11 1012.13 1011.62 1011.63 1012.23 1011.77 1011.46 1011.81 1011.08 1010.54 1010.87 1011.33 1011.82 1012.23 1012.45 1012.74 1012.86 1012.98 1013.19
1010.18 1010.33 1010.03 1010.05 1010.43 1010.99 1010.82 1010.92 1011.17 1011.37 1011.46 1011.29 1011.19 1011.31 1011.16 1011.22 1011.51 1011.85 1012.16 1012.28 1012.47 1012.46 1012.07 1012.28 1011.98 1011.07 1010.91 1010.82 1010.84 1011.04 1011.10 1011.03 1010.81 1011.02 1010.73 1010.54 1010.41 1010.36 1010.82 1011.55 1011.57 1012.02 1012.33
1010.26 1010.20 1009.99 1009.52 1008.88 1009.63 1010.10 1010.28 1010.21 1010.29 1010.42 1010.56 1010.62 1010.73 1010.77 1010.89 1011.37 1011.62 1011.83 1011.94 1012.09 1012.25 1012.22 1011.70 1010.90 1010.63 1011.00 1011.40 1011.27 1011.52 1011.41 1011.21 1010.72 1010.44 1011.06 1010.63 1010.51 1010.17 1010.03 1009.63 1009.53 1010.35 1011.32
1009.85 1009.73 1009.59 1009.40 1009.09 1008.94 1009.12 1009.27 1009.26 1009.18 1009.07 1009.50 1009.71 1009.80 1010.01 1009.86 1010.35 1010.82 1011.38 1011.62 1011.81 1011.97 1012.11 1012.12 1011.77 1011.30 1011.28 1011.67 1012.04 1012.19 1011.92 1011.74 1011.46 1010.99 1011.18 1010.76 1010.54 1010.01 1009.72 1009.55 1010.00 1010.40 1010.76
1009.80 1009.59 1009.41 1009.23 1009.22 1008.99 1009.29 1009.04 1008.51 1008.47 1008.61 1008.14 1008.02 1008.21 1008.77 1009.07 1009.48 1009.95 1010.72 1010.84 1010.93 1011.06 1011.60 1011.66 1011.58 1011.54 1011.82 1012.18 1012.46 1012.38 1012.45 1012.33 1011.80 1011.20 1011.38 1010.88 1010.14 1009.67 1009.40 1009.21 1009.44 1009.96 1010.44
1009.89 1009.79 1009.64 1009.48 1009.43 1009.29 1009.66 1010.10 1010.08 1009.25 1009.20 1008.92 1008.52 1008.16 1008.42 1008.47 1008.87 1009.47 1009.85 1010.38 1010.42 1010.47 1011.44 1011.39 1011.69 1012.04 1012.26 1012.54 1012.71 1012.37 1011.65 1011.29 1010.54 1010.42 1010.86 1010.92 1010.30 1009.53 1009.18 1008.80 1008.46 1009.15 1009.90
1009.75 1009.48 1009.15 1009.17 1009.30 1009.32 1009.37 1009.40 1009.73 1009.68 1008.87 1008.53 1008.38 1008.45 1008.63 1008.47 1008.22 1008.73 1009.14 1009.59 1009.89 1009.84 1010.31 1011.05 1011.91 1012.27 1012.32 1012.13 1012.75 1012.47 1011.53 1010.86 1010.83 1010.81 1010.89 1010.90 1010.00 1009.83 1009.19 1008.88 1008.89 1009.31 1009.76
Wind_Speed
4 4 4 3 5 5 3 4 6 7 6 6 6 6 8 6 4 5 4 17 15 14 15 17 15 15 14 15 14 13 12 12 11 12 12 11 10 10 10 9 9 8 8
5 4 4 6 5 0 4 2 6 5 6 6 7 7 7 6 8 7 7 10 15 14 15 17 18 17 17 16 15 14 14 12 11 11 12 11 10 12 12 11 11 10 9
7 6 6 3 5 5 5 6 7 7 7 7 7 7 7 8 8 8 7 6 12 17 16 17 18 18 18 18 16 16 15 14 13 12 11 11 12 13 13 12 12 11 10
8 7 6 5 5 4 5 7 7 5 6 6 6 7 6 8 9 9 9 7 7 7 16 17 17 17 19 20 18 18 17 15 14 13 13 12 13 13 13 13 13 12 11
10 9 5 5 4 4 4 4 4 6 5 5 6 7 8 7 8 10 11 9 9 7 7 20 19 18 20 21 20 18 17 17 16 15 15 15 14 15 13 13 13 12 12
10 9 9 6 5 5 5 4 4 3 4 4 7 6 7 8 8 9 9 9 11 9 10 6 11 12 19 20 19 19 19 17 16 16 16 15 15 15 14 14 14 13 12
9 10 7 7 7 5 4 5 6 5 5 5 4 8 7 9 9 9 9 9 10 9 10 8 7 6 11 19 18 17 18 17 17 17 16 16 16 14 14 14 13 13 13
10 9 9 7 6 5 4 5 6 4 3 4 2 3 4 6 9 10 8 8 10 9 10 11 10 9 8 8 12 20 18 18 18 18 16 17 16 13 13 14 13 13 13
10 11 11 10 7 7 5 6 6 5 4 4 5 2 2 1 4 3 6 8 9 9 10 10 11 11 11 10 7 12 18 18 19 18 17 15 13 12 12 13 14 14 13
11 10 11 9 8 8 5 6 7 4 6 4 4 7 9 3 3 1 2 4 7 9 11 9 10 11 12 11 12 10 13 18 17 17 16 15 15 13 13 13 14 14 14
9 10 11 9 10 9 7 8 6 6 4 5 5 5 4 6 6 5 6 3 6 6 9 10 11 10 12 12 10 11 14 13 12 14 16 16 16 16 15 15 15 15 16
7 11 11 9 8 9 10 7 7 8 7 6 5 4 5 5 3 6 6 4 5 3 7 3 9 10 6 8 10 4 5 12 14 16 16 16 15 16 17 17 17 17 18
8 9 8 9 8 10 9 8 8 8 7 8 7 6 6 5 4 8 5 5 5 7 6 9 9 7 7 9 10 6 9 13 13 12 13 15 14 14 15 16 17 18 19
7 9 10 10 9 8 10 10 6 8 9 8 8 8 6 6 6 7 6 5 4 6 2 4 1 5 6 2 4 5 10 14 12 12 12 11 11 12 13 12 14 16 18
6 11 10 10 12 11 11 8 8 10 9 8 9 8 8 6 7 3 7 6 8 5 6 7 4 3 3 6 6 8 10 7 12 10 9 10 11 12 13 14 14 14 13
9 10 10 10 10 11 10 10 10 11 11 9 9 8 9 7 7 8 6 5 6 6 8 1 4 1 2 4 5 7 8 2 10 11 11 12 11 12 14 14 14 16 15
9 10 8 9 10 10 10 11 13 11 12 11 11 10 11 9 7 9 6 7 7 8 8 6 1 2 4 5 5 5 7 7 7 15 14 12 11 11 11 12 14 16 17
10 10 9 10 11 10 10 11 13 13 13 13 13 12 11 9 10 9 8 9 6 5 7 7 5 5 4 4 5 6 7 6 6 12 12 11 11 11 11 12 13 13 13
10 10 10 11 10 11 12 12 12 12 13 12 12 13 12 11 10 9 8 8 8 7 8 8 6 7 4 4 6 6 6 7 6 10 12 13 15 14 13 13 12 13 13
9 8 7 7 7 10 10 10 9 11 13 13 13 14 13 11 11 10 7 7 7 5 7 8 6 9 7 3 5 7 6 8 8 7 5 8 11 14 15 14 15 14 14
6 7 8 9 8 8 9 11 11 11 12 14 14 14 14 12 8 8 7 8 8 6 7 6 8 7 7 6 5 5 6 7 5 7 8 9 9 12 13 15 12 17 14
9 8 8 9 10 8 11 10 10 12 12 13 12 13 14 8 10 9 11 7 4 8 9 9 8 6 5 6 5 5 6 7 7 2 5 8 8 9 9 11 11 11 15
10 10 11 9 9 9 15 16 15 11 13 13 13 13 11 11 11 11 13 10 9 9 7 7 10 8 7 5 6 6 7 7 8 7 7 10 8 9 9 9 10 9 11
8 9 11 12 12 11 12 15 17 13 13 15 17 16 15 13 8 7 7 9 13 12 11 10 10 9 4 4 5 6 7 8 8 9 8 7 7 7 7 8 7 11 10
9 10 11 12 11 12 6 9 9 8 9 12 13 15 12 12 12 12 11 10 12 11 6 7 7 6 4 2 3 6 7 8 7 4 3 5 9 8 7 6 5 15 8
9 9 11 10 8 10 3 4 7 8 13 11 13 13 13 12 12 13 10 11 10 11 10 9 6 6 6 7 7 8 7 7 4 6 4 6 6 5 5 1 3 5 5
Wind_Direction
223 157 308 239 266 173 214 237 233 221 215 227 213 216 242 209 191 250 217 168 196 210 212 213 217 219 225 218 217 223 222 226 223 228 233 240 238 239 239 242 239 242 250
224 181 213 236 234 20 165 226 223 222 242 222 223 216 238 245 184 217 242 169 193 206 212 213 217 219 223 232 215 222 225 229 233 239 231 237 242 248 245 242 239 239 240
220 244 216 175 232 156 212 185 229 220 229 220 223 223 229 223 236 209 220 237 174 201 212 220 222 221 222 228 219 219 222 223 228 238 239 238 240 238 241 242 240 238 233
237 226 239 214 165 217 212 184 230 223 228 250 222 222 235 228 210 209 220 216 237 210 196 215 222 223 223 222 228 224 220 218 225 232 236 239 243 237 233 233 234 236 237
228 240 243 249 224 236 217 219 188 204 200 227 263 229 214 239 231 212 212 211 224 219 237 182 209 221 224 226 226 229 227 221 220 227 232 232 239 241 234 231 229 228 230
229 233 245 237 234 226 202 208 245 190 252 204 261 228 229 222 229 238 223 218 219 207 211 234 186 211 218 229 228 227 228 226 224 227 231 234 235 238 231 230 227 221 223
235 230 237 227 232 234 224 195 208 213 233 218 246 253 219 229 233 234 230 228 233 203 227 206 235 241 189 214 226 231 232 228 230 233 230 231 235 235 228 227 226 219 219
235 233 215 227 218 239 216 228 227 232 230 229 258 261 251 211 218 229 226 241 230 233 225 217 225 231 246 209 204 217 230 231 233 235 238 233 232 223 216 215 222 225 221
241 235 233 238 205 244 188 223 229 218 221 236 224 264 287 283 219 178 227 230 236 239 241 239 222 220 227 242 208 200 213 226 234 240 242 237 233 228 223 213 213 224 224
243 243 243 226 225 238 222 222 224 244 209 244 209 191 240 272 325 251 208 294 250 245 252 245 237 222 223 230 231 248 190 210 220 231 239 238 232 226 226 221 212 216 224
257 250 247 233 224 235 216 235 244 217 236 234 240 252 238 258 225 238 283 232 210 220 254 234 239 233 227 226 237 228 199 206 218 229 236 240 236 230 226 228 219 215 222
255 243 244 242 231 231 236 223 229 231 245 260 287 248 243 262 244 241 261 270 258 292 292 278 271 241 244 246 241 295 176 205 213 224 231 233 235 236 230 230 228 225 226
245 259 239 244 238 241 243 228 222 246 238 245 232 264 268 202 255 256 259 263 256 234 197 202 222 229 222 230 228 220 212 214 219 223 232 230 229 233 236 237 239 228 226
259 273 262 238 224 231 232 228 219 237 231 238 243 254 276 266 244 287 260 272 249 259 228 296 132 250 214 226 229 223 245 234 210 223 227 228 230 233 236 242 249 245 230
252 243 250 239 234 227 229 221 224 230 244 229 237 247 256 247 258 248 244 242 265 266 260 155 229 167 225 195 208 228 252 198 193 205 222 227 221 222 227 229 230 238 238
242 253 247 239 237 232 229 224 227 222 229 230 234 239 251 254 261 273 277 229 254 274 282 195 215 78 307 275 206 241 253 214 199 207 213 218 222 224 226 231 235 236 232
247 253 248 242 236 236 232 228 228 235 229 235 245 237 246 246 259 250 222 264 215 233 256 266 217 185 264 254 273 229 242 253 229 199 214 222 224 228 230 238 237 236 232
252 253 252 236 238 239 238 234 229 234 224 235 237 241 244 242 230 247 263 235 250 233 257 254 314 305 255 265 264 263 267 257 257 177 195 212 232 237 235 238 237 238 229
241 227 228 234 238 241 239 239 235 239 239 240 241 242 246 244 246 257 243 263 218 218 214 252 270 244 250 253 250 244 261 257 260 146 192 212 219 227 234 236 234 229 228
221 194 201 227 232 248 244 248 241 237 246 248 246 250 244 240 244 242 239 244 252 247 232 248 266 260 241 215 229 274 231 212 233 262 221 243 191 214 226 228 231 226 224
215 204 184 183 207 235 238 230 236 241 247 250 248 247 244 240 242 242 232 225 237 220 243 250 253 254 254 262 281 311 300 281 293 261 262 273 235 215 212 214 231 218 212
220 215 216 202 173 210 211 190 210 229 237 245 251 251 255 219 221 216 222 252 262 231 242 265 265 265 297 272 271 284 297 290 293 264 276 277 299 288 270 282 204 180 196
242 239 235 240 218 192 182 187 190 214 214 217 227 238 242 246 209 232 214 222 231 246 257 266 267 278 302 302 308 288 278 288 283 304 309 285 285 277 272 276 157 178 177
267 262 259 249 240 228 200 210 194 209 222 221 218 215 219 230 235 212 240 232 226 224 221 231 239 263 285 273 278 277 289 284 267 245 201 270 290 287 276 275 210 188 194
284 273 267 268 262 264 247 335 319 279 274 263 240 223 213 216 216 192 214 229 239 234 130 88 67 58 81 69 300 283 253 251 267 300 216 272 272 297 297 306 289 182 185
278 278 279 278 288 295 354 357 304 290 289 274 252 245 230 231 200 195 205 214 225 229 231 162 200 210 221 210 209 247 271 262 256 265 105 283 286 326 308 149 356 143 153